Terug naar catalogus

STARLINK-35090

ActiefCommunicatieVLEO
NORAD 65698·PAYLOAD·🇺🇸 United States

Gelanceerd Sep 21, 2025 vanaf Cape Canaveral Space Force Station

Loading…

Volgende Passages (komende 24 uur)

TLE

VersSource: CelesTrak SupGP

Epoch: Sep 15, 2026, 02:34 UTC

1 65698C 25212Y   26258.10743056 -.00055123  00000+0 -16276-2 0  2584
2 65698  53.1582 182.6129 0001312  85.2974 139.0765 15.34438367    17

Volg STARLINK-35090 in realtime met AllMySat

Download on the App Store